Date String (YYYY-MM-DD hh:mm:ss) UTC,Instrument flags,Ambient pressure (hPa),Sample flow (lpm),Bypass flow (lpm),Sample temperature (°C),Ambient temperature (°C),ASC tube jacket temperature (°C),LED temperature (°C),Box temperature (°C),Sample RH (%),Span deviation,Mass concentration (μg/m³),Mass concentration (μg/m³),Mass concentration (μg/m³)
DateTimeUTC,F1_M11,P_M11,Q1_M11,Q2_M11,T1_M11,T2_M11,T3_M11,T4_M11,T5_M11,U1_M11,ZSPAN_M11,X0_M11,X2_M11,X1_M11
2022-09-04 17:00:00,,0831.1,5.00,0.00,29.9,27.9,00.0,38.5,31.7,25.0,0000.0,0014.62,0007.03,0006.20
2022-09-04 17:01:00,,0831.2,5.00,0.00,29.8,26.9,00.0,38.5,31.6,25.2,0000.0,0014.65,0007.03,0006.20
2022-09-04 17:02:00,,0831.2,5.00,0.00,29.8,26.9,00.0,38.5,31.6,25.0,0000.0,0013.83,0006.97,0006.17
2022-09-04 17:03:00,,0831.2,4.99,0.00,29.8,27.2,00.0,38.4,31.5,24.5,0000.0,0013.26,0006.96,0006.16
2022-09-04 17:04:00,,0831.2,4.99,0.00,29.7,27.5,00.0,38.4,31.5,25.2,0000.0,0012.88,0006.96,0006.16
2022-09-04 17:05:00,,0831.2,5.01,0.00,29.7,27.8,00.0,38.4,31.5,25.2,0000.0,0012.51,0006.95,0006.14
2022-09-04 17:06:00,,0831.2,5.00,0.00,29.7,28.0,00.0,38.4,31.6,25.2,0000.0,0012.37,0006.93,0006.12
2022-09-04 17:07:00,,0831.2,5.00,0.00,29.8,28.2,00.0,38.4,31.6,25.2,0000.0,0012.30,0006.92,0006.11
2022-09-04 17:08:00,,0831.2,4.99,0.00,29.8,28.4,00.0,38.5,31.7,25.6,0000.0,0012.67,0006.95,0006.12
2022-09-04 17:09:00,,0831.2,4.99,0.00,29.8,28.6,00.0,38.5,31.7,25.9,0000.0,0012.76,0006.97,0006.12
2022-09-04 17:10:00,,0831.1,4.99,0.00,29.8,28.0,00.0,38.5,31.7,25.9,0000.0,0012.72,0007.00,0006.12
2022-09-04 17:11:00,,0831.1,5.00,0.00,29.8,26.9,00.0,38.5,31.6,25.7,0000.0,0013.81,0007.01,0006.13
2022-09-04 17:12:00,,0831.1,4.99,0.00,29.7,26.8,00.0,38.4,31.5,25.6,0000.0,0014.70,0007.02,0006.13
2022-09-04 17:13:00,,0831.0,5.00,0.00,29.7,27.1,00.0,38.4,31.5,25.5,0000.0,0014.77,0007.07,0006.16
2022-09-04 17:14:00,,0831.0,5.01,0.00,29.7,27.4,00.0,38.4,31.4,25.1,0000.0,0015.33,0007.11,0006.17
2022-09-04 17:15:00,,0831.0,4.99,0.00,29.7,27.7,00.0,38.4,31.4,25.8,0000.0,0015.35,0007.14,0006.16
2022-09-04 17:16:00,,0831.0,5.00,0.00,29.7,27.9,00.0,38.4,31.5,26.0,0000.0,0015.89,0007.15,0006.17
2022-09-04 17:17:00,,0831.0,5.01,0.00,29.7,28.1,00.0,38.4,31.5,25.8,0000.0,0016.31,0007.14,0006.19
2022-09-04 17:18:00,,0830.9,5.01,0.00,29.7,28.3,00.0,38.4,31.6,25.6,0000.0,0016.37,0007.18,0006.21
2022-09-04 17:19:00,,0830.9,5.01,0.00,29.7,28.5,00.0,38.4,31.7,25.6,0000.0,0016.31,0007.17,0006.21
2022-09-04 17:20:00,,0830.9,4.98,0.00,29.8,28.7,00.0,38.4,31.7,25.2,0000.0,0017.37,0007.19,0006.19
2022-09-04 17:21:00,,0830.9,4.99,0.00,29.8,28.3,00.0,38.4,31.7,25.6,0000.0,0017.81,0007.16,0006.18
2022-09-04 17:22:00,,0830.9,5.01,0.00,29.8,27.2,00.0,38.4,31.6,26.2,0000.0,0018.27,0007.15,0006.17
2022-09-04 17:23:00,,0830.9,5.00,0.00,29.8,26.9,00.0,38.4,31.6,26.3,0000.0,0017.34,0007.15,0006.17
2022-09-04 17:24:00,,0830.9,5.00,0.00,29.7,27.1,00.0,38.4,31.5,26.5,0000.0,0017.35,0007.12,0006.17
2022-09-04 17:25:00,,0830.9,5.00,0.00,29.7,27.4,00.0,38.4,31.4,26.5,0000.0,0017.21,0007.10,0006.16
2022-09-04 17:26:00,,0830.9,4.99,0.00,29.7,27.7,00.0,38.3,31.5,26.3,0000.0,0017.78,0007.05,0006.16
2022-09-04 17:27:00,,0830.9,5.01,0.00,29.7,27.9,00.0,38.4,31.5,26.1,0000.0,0017.87,0007.07,0006.15
2022-09-04 17:28:00,,0830.9,5.01,0.00,29.7,28.2,00.0,38.4,31.6,26.1,0000.0,0017.42,0007.13,0006.16
2022-09-04 17:29:00,,0830.9,5.01,0.00,29.7,28.4,00.0,38.4,31.6,26.2,0000.0,0017.69,0007.08,0006.15
2022-09-04 17:30:00,,0830.8,4.98,0.00,29.8,28.5,00.0,38.4,31.7,26.2,0000.0,0018.65,0007.08,0006.14
2022-09-04 17:31:00,,0830.8,5.00,0.00,29.8,28.3,00.0,38.4,31.7,25.8,0000.0,0017.11,0007.02,0006.15
2022-09-04 17:32:00,,0830.8,5.01,0.00,29.8,27.2,00.0,38.4,31.6,25.9,0000.0,0016.23,0007.04,0006.15
2022-09-04 17:33:00,,0830.8,5.00,0.00,29.7,26.7,00.0,38.4,31.5,26.3,0000.0,0015.01,0007.06,0006.16
2022-09-04 17:34:00,,0830.7,5.00,0.00,29.7,27.0,00.0,38.3,31.5,26.9,0000.0,0014.88,0007.09,0006.15
2022-09-04 17:35:00,,0830.8,5.00,0.00,29.7,27.2,00.0,38.3,31.4,27.1,0000.0,0015.02,0007.12,0006.15
2022-09-04 17:36:00,,0830.8,4.99,0.00,29.6,27.6,00.0,38.3,31.4,27.1,0000.0,0015.22,0007.20,0006.16
2022-09-04 17:37:00,,0830.8,4.99,0.00,29.6,27.8,00.0,38.3,31.5,26.7,0000.0,0014.20,0007.29,0006.17
2022-09-04 17:38:00,,0830.8,5.00,0.00,29.7,28.1,00.0,38.3,31.5,26.2,0000.0,0013.72,0007.29,0006.19
2022-09-04 17:39:00,,0830.7,5.00,0.00,29.7,28.3,00.0,38.3,31.6,26.4,0000.0,0013.72,0007.22,0006.18
2022-09-04 17:40:00,,0830.8,5.01,0.00,29.7,28.1,00.0,38.4,31.6,25.6,0000.0,0013.92,0007.26,0006.18
2022-09-04 17:41:00,,0830.8,4.99,0.00,29.7,27.1,00.0,38.3,31.5,25.6,0000.0,0012.76,0007.31,0006.19
2022-09-04 17:42:00,,0830.7,5.00,0.00,29.6,26.6,00.0,38.3,31.4,26.0,0000.0,0012.81,0007.35,0006.18
2022-09-04 17:43:00,,0830.7,5.00,0.00,29.6,26.9,00.0,38.3,31.4,26.1,0000.0,0013.33,0007.33,0006.17
2022-09-04 17:44:00,,0830.7,4.99,0.00,29.6,27.1,00.0,38.2,31.3,26.4,0000.0,0014.10,0007.30,0006.17
2022-09-04 17:45:00,,0830.6,5.01,0.00,29.5,27.4,00.0,38.2,31.3,26.5,0000.0,0014.28,0007.27,0006.18
2022-09-04 17:46:00,,0830.6,5.00,0.00,29.5,27.7,00.0,38.2,31.4,27.1,0000.0,0014.65,0007.21,0006.16
2022-09-04 17:47:00,,0830.6,5.00,0.00,29.6,28.0,00.0,38.2,31.4,27.5,0000.0,0015.87,0007.13,0006.15
2022-09-04 17:48:00,,0830.6,5.00,0.00,29.6,28.2,00.0,38.3,31.5,27.7,0000.0,0015.51,0007.05,0006.14
2022-09-04 17:49:00,,0830.6,4.98,0.00,29.6,28.4,00.0,38.3,31.5,27.2,0000.0,0015.72,0007.03,0006.12
2022-09-04 17:50:00,,0830.6,5.00,0.00,29.7,28.3,00.0,38.3,31.6,25.8,0000.0,0015.84,0007.08,0006.12
2022-09-04 17:51:00,,0830.6,4.99,0.00,29.7,27.3,00.0,38.3,31.4,25.8,0000.0,0015.60,0007.07,0006.12
2022-09-04 17:52:00,,0830.6,5.00,0.00,29.6,26.7,00.0,38.3,31.4,25.8,0000.0,0015.40,0007.03,0006.12
2022-09-04 17:53:00,,0830.6,5.01,0.00,29.6,26.9,00.0,38.2,31.4,25.4,0000.0,0015.31,0007.01,0006.11
2022-09-04 17:54:00,,0830.6,5.01,0.00,29.5,27.1,00.0,38.2,31.3,25.5,0000.0,0014.69,0007.00,0006.10
2022-09-04 17:55:00,,0830.5,5.00,0.00,29.5,27.4,00.0,38.2,31.3,24.7,0000.0,0013.97,0006.99,0006.09
2022-09-04 17:56:00,,0830.5,4.99,0.00,29.5,27.7,00.0,38.2,31.4,25.4,0000.0,0014.40,0006.96,0006.06
2022-09-04 17:57:00,,0830.5,5.01,0.00,29.5,28.0,00.0,38.2,31.4,24.6,0000.0,0013.74,0006.92,0006.05
2022-09-04 17:58:00,,0830.5,5.01,0.00,29.6,28.2,00.0,38.2,31.5,24.3,0000.0,0012.36,0006.87,0006.03
2022-09-04 17:59:00,,0830.5,4.98,0.00,29.6,28.4,00.0,38.2,31.5,23.8,0000.0,0012.86,0006.84,0006.01
